• In Deutschland
  • Länderverzeichnis
  • Für 7 Tage
  • Wassertemperatur
  • Satellitenkarten
  • Wetterkarte
  • Widgets
  • user-avatar
    Anmelden

    Stündliche Wetter Michurine

    Heute, 19 September, Mittwoch

    Zeit Temperatur Niederschläge Wind Luftdruck Luftfeuchtigkeit
    00:00 +17°C° 0 mm 3 m/S 755 mmHg 53%
    01:00 +17°C° 0 mm 3 m/S 755 mmHg 55%
    02:00 +17°C° 0 mm 3 m/S 755 mmHg 57%
    03:00 +16°C° 0 mm 3 m/S 755 mmHg 59%
    04:00 +16°C° 0 mm 3 m/S 755 mmHg 62%
    05:00 +16°C° 0 mm 3 m/S 755 mmHg 64%
    06:00 +14°C° 0 mm 3 m/S 755 mmHg 66%
    07:00 +17°C° 0 mm 3 m/S 755 mmHg 63%
    08:00 +18°C° 0 mm 3 m/S 755 mmHg 60%
    09:00 +20°C° 0 mm 3 m/S 755 mmHg 56%
    10:00 +21°C° 0 mm 3 m/S 755 mmHg 52%
    11:00 +24°C° 0 mm 3 m/S 755 mmHg 47%
    12:00 +25°C° 0 mm 4 m/S 755 mmHg 42%
    13:00 +26°C° 0 mm 4 m/S 755 mmHg 40%
    14:00 +27°C° 0 mm 4 m/S 755 mmHg 38%
    15:00 +27°C° 0 mm 4 m/S 755 mmHg 36%
    16:00 +27°C° 0 mm 4 m/S 755 mmHg 38%
    17:00 +26°C° 0 mm 4 m/S 754 mmHg 40%
    18:00 +25°C° 0 mm 3 m/S 754 mmHg 42%
    19:00 +24°C° 0 mm 3 m/S 755 mmHg 44%
    20:00 +22°C° 0 mm 3 m/S 755 mmHg 47%
    21:00 +21°C° 0 mm 2 m/S 755 mmHg 49%
    22:00 +21°C° 0 mm 2 m/S 755 mmHg 51%
    23:00 +20°C° 0 mm 2 m/S 755 mmHg 53%

    Morgen, 20 September, Donnerstag

    Zeit Temperatur Niederschläge Wind Luftdruck Luftfeuchtigkeit
    00:00 +20°C° 0 mm 2 m/S 755 mmHg 54%
    01:00 +19°C° 0 mm 2 m/S 755 mmHg 55%
    02:00 +19°C° 0 mm 2 m/S 755 mmHg 56%
    03:00 +18°C° 0 mm 2 m/S 755 mmHg 58%
    04:00 +18°C° 0 mm 2 m/S 754 mmHg 59%
    05:00 +18°C° 0 mm 2 m/S 754 mmHg 60%
    06:00 +18°C° 0 mm 2 m/S 754 mmHg 61%
    07:00 +19°C° 0 mm 2 m/S 755 mmHg 57%
    08:00 +21°C° 0 mm 2 m/S 755 mmHg 53%
    09:00 +23°C° 0 mm 2 m/S 755 mmHg 49%
    10:00 +25°C° 0 mm 2 m/S 755 mmHg 44%
    11:00 +26°C° 0 mm 2 m/S 755 mmHg 40%
    12:00 +27°C° 0 mm 2 m/S 754 mmHg 36%
    13:00 +28°C° 0 mm 2 m/S 754 mmHg 33%
    14:00 +29°C° 0 mm 2 m/S 754 mmHg 31%
    15:00 +29°C° 0 mm 2 m/S 753 mmHg 29%
    16:00 +29°C° 0 mm 2 m/S 753 mmHg 31%
    17:00 +28°C° 0 mm 2 m/S 753 mmHg 33%
    18:00 +27°C° 0 mm 2 m/S 753 mmHg 35%
    19:00 +26°C° 0 mm 2 m/S 753 mmHg 38%
    20:00 +25°C° 0 mm 2 m/S 753 mmHg 41%
    21:00 +24°C° 0 mm 2 m/S 753 mmHg 44%
    22:00 +23°C° 0 mm 2 m/S 753 mmHg 45%
    23:00 +23°C° 0 mm 2 m/S 753 mmHg 47%

    übermorgen, 21 September, Freitag

    Zeit Temperatur Niederschläge Wind Luftdruck Luftfeuchtigkeit
    00:00 +21°C° 0 mm 2 m/S 753 mmHg 49%
    01:00 +21°C° 0 mm 2 m/S 753 mmHg 51%
    02:00 +20°C° 0 mm 2 m/S 753 mmHg 53%
    03:00 +20°C° 0 mm 2 m/S 753 mmHg 55%
    04:00 +19°C° 0 mm 2 m/S 753 mmHg 57%
    05:00 +19°C° 0 mm 2 m/S 753 mmHg 59%
    06:00 +19°C° 0 mm 2 m/S 752 mmHg 61%
    07:00 +20°C° 0 mm 3 m/S 753 mmHg 58%
    08:00 +22°C° 0 mm 3 m/S 753 mmHg 55%
    09:00 +24°C° 0 mm 3 m/S 753 mmHg 52%
    10:00 +26°C° 0 mm 3 m/S 753 mmHg 47%
    11:00 +27°C° 0 mm 2 m/S 753 mmHg 43%
    12:00 +28°C° 0 mm 2 m/S 753 mmHg 39%
    13:00 +29°C° 0 mm 2 m/S 753 mmHg 37%
    14:00 +29°C° 0 mm 2 m/S 753 mmHg 35%
    15:00 +30°C° 0 mm 2 m/S 753 mmHg 33%
    16:00 +29°C° 0 mm 2 m/S 752 mmHg 35%
    17:00 +28°C° 0 mm 2 m/S 752 mmHg 37%
    18:00 +28°C° 0 mm 1 m/S 752 mmHg 39%
    19:00 +26°C° 0 mm 2 m/S 752 mmHg 42%
    20:00 +25°C° 0 mm 2 m/S 752 mmHg 45%
    21:00 +24°C° 0 mm 2 m/S 753 mmHg 48%
    22:00 +24°C° 0 mm 2 m/S 753 mmHg 49%
    23:00 +23°C° 0 mm 2 m/S 752 mmHg 50%

    22 September, Samstag

    Zeit Temperatur Niederschläge Wind Luftdruck Luftfeuchtigkeit
    00:00 +22°C° 0 mm 3 m/S 752 mmHg 51%
    01:00 +21°C° 0 mm 3 m/S 752 mmHg 53%
    02:00 +21°C° 0 mm 3 m/S 752 mmHg 54%
    03:00 +20°C° 0 mm 3 m/S 752 mmHg 55%
    04:00 +20°C° 0 mm 3 m/S 752 mmHg 57%
    05:00 +19°C° 0 mm 3 m/S 752 mmHg 59%
    06:00 +19°C° 0 mm 3 m/S 752 mmHg 61%
    07:00 +20°C° 0 mm 3 m/S 753 mmHg 57%
    08:00 +22°C° 0 mm 4 m/S 753 mmHg 54%
    09:00 +23°C° 0 mm 4 m/S 753 mmHg 51%
    10:00 +25°C° 0 mm 4 m/S 752 mmHg 46%
    11:00 +27°C° 0 mm 4 m/S 752 mmHg 41%
    12:00 +28°C° 0 mm 4 m/S 752 mmHg 36%
    13:00 +29°C° 0 mm 4 m/S 752 mmHg 34%
    14:00 +29°C° 0 mm 4 m/S 751 mmHg 32%
    15:00 +30°C° 0 mm 4 m/S 751 mmHg 31%
    16:00 +29°C° 0 mm 3 m/S 751 mmHg 33%
    17:00 +28°C° 0 mm 3 m/S 750 mmHg 35%
    18:00 +27°C° 0 mm 3 m/S 750 mmHg 37%
    19:00 +26°C° 0 mm 3 m/S 750 mmHg 39%
    20:00 +25°C° 0 mm 3 m/S 750 mmHg 41%
    21:00 +24°C° 0 mm 3 m/S 750 mmHg 43%
    22:00 +24°C° 0 mm 3 m/S 750 mmHg 45%
    23:00 +22°C° 0 mm 4 m/S 750 mmHg 47%

    23 September, Sonntag

    Zeit Temperatur Niederschläge Wind Luftdruck Luftfeuchtigkeit
    00:00 +22°C° 0 mm 4 m/S 749 mmHg 49%
    01:00 +21°C° 0 mm 4 m/S 749 mmHg 52%
    02:00 +21°C° 0 mm 4 m/S 749 mmHg 54%
    03:00 +20°C° 0 mm 4 m/S 749 mmHg 56%
    04:00 +20°C° 0 mm 4 m/S 749 mmHg 57%
    05:00 +19°C° 0 mm 4 m/S 749 mmHg 59%
    06:00 +19°C° 0 mm 3 m/S 749 mmHg 61%
    07:00 +20°C° 0 mm 4 m/S 748 mmHg 57%
    08:00 +21°C° 0 mm 4 m/S 748 mmHg 53%
    09:00 +23°C° 0 mm 5 m/S 748 mmHg 49%
    10:00 +25°C° 0 mm 5 m/S 747 mmHg 47%
    11:00 +26°C° 0 mm 5 m/S 747 mmHg 44%
    12:00 +27°C° 0 mm 5 m/S 747 mmHg 41%
    13:00 +27°C° 0 mm 5 m/S 746 mmHg 41%
    14:00 +28°C° 0 mm 6 m/S 746 mmHg 41%
    15:00 +28°C° 0 mm 6 m/S 746 mmHg 41%
    16:00 +27°C° 0 mm 6 m/S 746 mmHg 44%
    17:00 +24°C° 0 mm 6 m/S 746 mmHg 46%
    18:00 +23°C° 0 mm 5 m/S 746 mmHg 49%
    19:00 +22°C° 0 mm 6 m/S 746 mmHg 54%
    20:00 +20°C° 0 mm 6 m/S 746 mmHg 58%
    21:00 +17°C° 0 mm 6 m/S 746 mmHg 63%
    22:00 +16°C° 0.4 mm 6 m/S 746 mmHg 67%
    23:00 +15°C° 0.4 mm 6 m/S 746 mmHg 71%

    24 September, Montag

    Zeit Temperatur Niederschläge Wind Luftdruck Luftfeuchtigkeit
    00:00 +13°C° 0.4 mm 5 m/S 746 mmHg 75%
    01:00 +13°C° 0.3 mm 5 m/S 746 mmHg 75%
    02:00 +13°C° 0.3 mm 6 m/S 746 mmHg 75%
    03:00 +11°C° 0.3 mm 6 m/S 746 mmHg 75%
    04:00 +11°C° 0 mm 6 m/S 746 mmHg 75%
    05:00 +11°C° 0 mm 6 m/S 747 mmHg 74%
    06:00 +11°C° 0 mm 6 m/S 747 mmHg 74%
    07:00 +11°C° 0 mm 6 m/S 747 mmHg 73%
    08:00 +11°C° 0 mm 6 m/S 747 mmHg 73%
    09:00 +11°C° 0 mm 6 m/S 747 mmHg 72%
    10:00 +13°C° 0 mm 6 m/S 748 mmHg 68%
    11:00 +14°C° 0 mm 6 m/S 748 mmHg 64%
    12:00 +15°C° 0 mm 6 m/S 748 mmHg 61%
    13:00 +16°C° 0 mm 5 m/S 748 mmHg 59%
    14:00 +17°C° 0 mm 4 m/S 748 mmHg 57%
    15:00 +18°C° 0 mm 4 m/S 748 mmHg 56%
    16:00 +18°C° 0 mm 3 m/S 748 mmHg 57%
    17:00 +17°C° 0 mm 2 m/S 748 mmHg 58%
    18:00 +18°C° 0 mm 1 m/S 748 mmHg 60%
    19:00 +18°C° 0 mm 1 m/S 748 mmHg 62%
    20:00 +16°C° 0 mm 1 m/S 749 mmHg 65%
    21:00 +14°C° 0 mm 0 m/S 749 mmHg 67%
    22:00 +14°C° 0 mm 0 m/S 749 mmHg 69%
    23:00 +13°C° 0 mm 0 m/S 749 mmHg 71%
    Mehr zeigen